KD0RXN-4 Weather Reports


time (UTC)temp
C
wind
direction
speed
KPH
gust
KPH
rain 1hr
cm
rain 24hr
cm
rain mn
cm
humidity
%
barometer
mb
20260510211523 22 29 0.0 3.2 0.00 0.00 0.00 36 1017.7
20260510211025 22 277 0.0 3.2 0.00 0.00 0.00 36 1017.6
20260510210527 22 44 0.0 3.2 0.00 0.00 0.00 34 1017.7
20260510210031 22 42 0.0 3.2 0.00 0.00 0.00 34 1017.9
20260510205520 22 336 0.0 1.6 0.00 0.00 0.00 34 1017.9
20260510205043 22 92 0.0 3.2 0.00 0.00 0.00 34 1017.9
20260510204527 22 28 0.0 3.2 0.00 0.00 0.00 33 1018.0
20260510204033 22 38 0.0 1.6 0.00 0.00 0.00 31 1018.0
20260510203538 22 346 0.0 1.6 0.00 0.00 0.00 33 1018.0
20260510203022 22 66 0.0 1.6 0.00 0.00 0.00 33 1018.0
20260510202528 22 80 0.0 3.2 0.00 0.00 0.00 34 1018.0
20260510202031 22 150 0.0 3.2 0.00 0.00 0.00 36 1018.1
20260510201536 21 56 0.0 4.8 0.00 0.00 0.00 34 1018.1
20260510201022 21 43 1.6 9.7 0.00 0.00 0.00 33 1018.2
20260510200527 22 43 1.6 9.7 0.00 0.00 0.00 33 1018.2
20260510200032 23 49 0.0 1.6 0.00 0.00 0.00 34 1018.2
20260510195521 23 12 0.0 1.6 0.00 0.00 0.00 34 1018.2
20260510195045 23 22 0.0 1.6 0.00 0.00 0.00 34 1018.2
20260510194548 23 34 0.0 3.2 0.00 0.00 0.00 34 1018.2
20260510194033 23 24 0.0 3.2 0.00 0.00 0.00 33 1018.1
20260510193518 23 103 0.0 3.2 0.00 0.00 0.00 33 1018.3
20260510193044 23 204 0.0 1.6 0.00 0.00 0.00 32 1018.2
20260510192528 23 22 0.0 1.6 0.00 0.00 0.00 33 1018.3
20260510192032 23 56 0.0 1.6 0.00 0.00 0.00 34 1018.3
20260510191537 23 36 0.0 1.6 0.00 0.00 0.00 34 1018.3
20260510191017 23 29 0.0 3.2 0.00 0.00 0.00 36 1018.4
20260510190523 23 48 0.0 3.2 0.00 0.00 0.00 33 1018.4
20260510190048 23 26 0.0 1.6 0.00 0.00 0.00 32 1018.5
20260510185532 23 67 0.0 1.6 0.00 0.00 0.00 32 1018.5
20260510185018 23 42 0.0 1.6 0.00 0.00 0.00 33 1018.4
20260510184524 23 331 0.0 1.6 0.00 0.00 0.00 33 1018.3
20260510184029 23 149 0.0 0.0 0.00 0.00 0.00 33 1018.3
20260510183534 23 273 0.0 1.6 0.00 0.00 0.00 33 1018.4
20260510183039 22 28 0.0 1.6 0.00 0.00 0.00 34 1018.3
20260510182543 22 83 0.0 1.6 0.00 0.00 0.00 35 1018.3
20260510182025 22 46 0.0 1.6 0.00 0.00 0.00 35 1018.3
20260510181531 22 28 0.0 3.2 0.00 0.00 0.00 36 1018.4
20260510181016 22 82 0.0 3.2 0.00 0.00 0.00 37 1018.3
20260510180521 22 52 0.0 3.2 0.00 0.00 0.00 36 1018.2
20260510180027 21 71 0.0 1.6 0.00 0.00 0.00 37 1018.2
20260510175552 21 72 0.0 6.4 0.00 0.00 0.00 38 1018.1
20260510175033 21 96 1.6 14.5 0.00 0.00 0.00 37 1018.0
20260510174521 21 75 1.6 14.5 0.00 0.00 0.00 36 1017.9
20260510174027 21 90 1.6 4.8 0.00 0.00 0.00 35 1017.7
20260510173532 21 61 0.0 8.0 0.00 0.00 0.00 36 1017.9
20260510173035 21 60 0.0 8.0 0.00 0.00 0.00 36 1017.9
20260510172520 21 53 0.0 4.8 0.00 0.00 0.00 36 1017.8
20260510172024 21 66 0.0 4.8 0.00 0.00 0.00 37 1017.7
20260510171531 20 56 0.0 4.8 0.00 0.00 0.00 36 1017.7
20260510171037 20 68 1.6 12.9 0.00 0.00 0.00 35 1017.9
20260510170524 21 57 3.2 14.5 0.00 0.00 0.00 35 1017.7
20260510170052 21 73 3.2 14.5 0.00 0.00 0.00 35 1017.7
20260510165518 21 350 0.0 3.2 0.00 0.00 0.00 36 1017.6
20260510165022 21 53 0.0 1.6 0.00 0.00 0.00 40 1017.7
20260510164533 20 74 0.0 9.7 0.00 0.00 0.00 39 1017.7
20260510164019 20 35 1.6 9.7 0.00 0.00 0.00 37 1017.6
20260510163525 20 281 1.6 12.9 0.00 0.00 0.00 38 1017.5
20260510163031 20 59 1.6 17.7 0.00 0.00 0.00 38 1017.5
20260510162517 20 72 3.2 17.7 0.00 0.00 0.00 38 1017.4
20260510162040 20 26 0.0 12.9 0.00 0.00 0.00 41 1017.4
20260510161524 20 63 3.2 12.9 0.00 0.00 0.00 38 1017.4
20260510161031 20 36 1.6 8.0 0.00 0.00 0.00 38 1017.5
20260510160517 20 53 0.0 3.2 0.00 0.00 0.00 39 1017.4
20260510160023 19 42 0.0 3.2 0.00 0.00 0.00 39 1017.4
20260510155529 18 297 0.0 12.9 0.00 0.00 0.00 42 1017.4
20260510155016 18 61 1.6 12.9 0.00 0.00 0.00 41 1017.2
20260510154542 18 28 1.6 6.4 0.00 0.00 0.00 42 1017.2
20260510154027 18 61 1.6 8.0 0.00 0.00 0.00 44 1017.3
20260510153550 18 38 1.6 8.0 0.00 0.00 0.00 44 1017.3
20260510153034 18 62 0.0 9.7 0.00 0.00 0.00 44 1017.3
20260510152540 18 340 1.6 9.7 0.00 0.00 0.00 45 1017.3
20260510152023 18 47 0.0 4.8 0.00 0.00 0.00 45 1017.3
20260510151529 17 24 0.0 9.7 0.00 0.00 0.00 46 1017.3
20260510151035 18 46 0.0 3.2 0.00 0.00 0.00 46 1017.4
20260510150521 17 101 0.0 3.2 0.00 0.00 0.00 47 1017.4
20260510150027 17 55 0.0 3.2 0.00 0.00 0.00 48 1017.5
20260510145533 17 71 0.0 6.4 0.00 0.00 0.00 49 1017.5
20260510145021 17 57 0.0 12.9 0.00 0.00 0.00 49 1017.4
20260510144527 17 46 0.0 12.9 0.00 0.00 0.00 50 1017.4
20260510144049 17 72 1.6 12.9 0.00 0.00 0.00 50 1017.5
20260510143534 17 66 1.6 8.0 0.00 0.00 0.00 50 1017.4
20260510143020 17 53 1.6 6.4 0.00 0.00 0.00 50 1017.5
20260510142526 17 338 0.0 4.8 0.00 0.03 0.00 51 1017.4
20260510142030 17 80 0.0 4.8 0.00 0.03 0.00 51 1017.3
20260510141556 17 62 0.0 3.2 0.00 0.03 0.00 54 1017.3
20260510141041 17 62 0.0 8.0 0.00 0.03 0.00 54 1017.2
20260510140526 17 53 1.6 8.0 0.00 0.03 0.00 54 1017.1
20260510140031 17 20 0.0 3.2 0.00 0.03 0.00 58 1017.0
20260510135517 17 60 0.0 3.2 0.00 0.03 0.00 59 1016.9
20260510135021 17 44 0.0 3.2 0.00 0.03 0.00 60 1016.7
20260510134531 16 55 0.0 3.2 0.00 0.03 0.00 62 1016.6
20260510134053 16 57 0.0 3.2 0.00 0.03 0.00 63 1016.5
20260510133538 16 60 0.0 3.2 0.00 0.03 0.00 63 1016.4
20260510133023 16 65 0.0 3.2 0.00 0.03 0.00 64 1016.3
20260510132549 16 53 0.0 3.2 0.00 0.03 0.00 66 1016.2
20260510132031 16 70 0.0 3.2 0.00 0.03 0.00 65 1016.2
20260510131517 16 64 0.0 3.2 0.00 0.03 0.00 66 1016.1
20260510131043 16 80 0.0 3.2 0.00 0.03 0.00 68 1016.1
20260510130528 16 66 0.0 3.2 0.00 0.03 0.00 68 1016.0
20260510130034 16 40 0.0 1.6 0.00 0.03 0.00 69 1015.9
20260510125520 16 78 0.0 3.2 0.00 0.03 0.00 69 1015.6
20260510125023 16 76 0.0 3.2 0.00 0.03 0.00 70 1015.5
20260510124529 16 71 0.0 1.6 0.00 0.03 0.00 71 1015.4
20260510124019 16 59 0.0 1.6 0.00 0.03 0.00 72 1015.4
20260510123525 15 42 0.0 3.2 0.00 0.03 0.00 73 1015.2
20260510123029 15 54 0.0 3.2 0.00 0.03 0.00 74 1015.0
20260510122534 15 41 0.0 1.6 0.00 0.03 0.00 75 1015.1
20260510122017 15 30 0.0 1.6 0.00 0.03 0.00 76 1015.1
20260510121543 15 54 0.0 0.0 0.00 0.03 0.00 78 1015.1
20260510121025 15 61 0.0 0.0 0.00 0.03 0.00 79 1015.1
20260510120531 15 40 0.0 0.0 0.00 0.03 0.00 79 1015.0
20260510120057 15 80 0.0 0.0 0.00 0.03 0.00 79 1014.9
20260510115542 14 73 0.0 0.0 0.00 0.03 0.00 80 1014.7
20260510115024 14 91 0.0 0.0 0.00 0.03 0.00 81 1014.7
20260510114530 14 47 0.0 0.0 0.00 0.03 0.00 81 1014.6
20260510114036 14 5 0.0 0.0 0.00 0.03 0.00 82 1014.5
20260510113527 14 67 0.0 0.0 0.00 0.03 0.00 82 1014.3
20260510113052 15 67 0.0 0.0 0.00 0.03 0.00 82 1014.2
20260510112517 15 96 0.0 0.0 0.00 0.03 0.00 82 1014.1
20260510112021 15 65 0.0 0.0 0.00 0.03 0.00 81 1014.0
20260510111547 15 65 0.0 0.0 0.00 0.03 0.00 81 1014.0
20260510111032 15 45 0.0 0.0 0.00 0.03 0.00 81 1014.0
20260510110518 15 45 0.0 0.0 0.00 0.03 0.00 81 1014.0
20260510110024 15 59 0.0 0.0 0.00 0.03 0.00 81 1014.0
20260510105530 15 60 0.0 1.6 0.00 0.03 0.00 81 1014.1
20260510105056 15 41 0.0 1.6 0.00 0.03 0.00 81 1014.1
20260510104521 15 41 0.0 0.0 0.00 0.03 0.00 80 1014.1
20260510104027 15 41 0.0 0.0 0.00 0.03 0.00 80 1014.0
20260510103517 15 46 0.0 0.0 0.00 0.03 0.00 80 1013.9
20260510103023 15 44 0.0 0.0 0.00 0.03 0.00 80 1013.8
20260510102529 15 15 0.0 0.0 0.00 0.03 0.00 80 1013.8
20260510102032 15 98 0.0 0.0 0.00 0.03 0.00 79 1013.7
20260510101518 15 28 0.0 0.0 0.00 0.03 0.00 79 1013.4
20260510101022 15 54 0.0 0.0 0.00 0.03 0.00 79 1013.2
20260510100526 15 76 0.0 0.0 0.00 0.03 0.00 79 1013.1
20260510100031 15 67 0.0 0.0 0.00 0.03 0.00 79 1013.1
20260510095517 16 46 0.0 0.0 0.00 0.03 0.00 79 1013.1
20260510095020 16 42 0.0 0.0 0.00 0.03 0.00 78 1013.1
20260510094547 16 336 0.0 0.0 0.00 0.03 0.00 78 1013.1
20260510094031 16 27 0.0 0.0 0.00 0.03 0.00 78 1013.0
20260510093521 16 40 0.0 0.0 0.00 0.03 0.00 77 1012.9
20260510093025 16 46 0.0 0.0 0.00 0.03 0.00 77 1012.8
20260510092551 16 16 0.0 0.0 0.00 0.03 0.00 76 1012.7
20260510092032 16 53 0.0 0.0 0.00 0.03 0.00 75 1012.7
20260510091539 16 46 0.0 0.0 0.00 0.03 0.00 75 1012.5
20260510091044 16 76 0.0 0.0 0.00 0.03 0.00 74 1012.4
20260510090529 17 77 0.0 0.0 0.00 0.03 0.00 73 1012.2
20260510090034 17 76 0.0 0.0 0.00 0.03 0.00 73 1012.3
20260510085521 17 82 0.0 0.0 0.00 0.03 0.00 73 1012.3
20260510085025 17 82 0.0 0.0 0.00 0.03 0.00 72 1012.2
20260510084531 17 78 0.0 0.0 0.00 0.03 0.00 72 1012.2
20260510084016 17 77 0.0 0.0 0.00 0.03 0.00 72 1012.2
20260510083527 17 48 0.0 0.0 0.00 0.03 0.00 72 1012.2
20260510083033 17 49 0.0 0.0 0.00 0.03 0.00 72 1012.1
20260510082520 17 42 0.0 0.0 0.00 0.03 0.00 71 1012.0
20260510082023 17 57 0.0 0.0 0.00 0.03 0.00 71 1012.0
20260510081529 17 57 0.0 0.0 0.00 0.03 0.00 70 1012.0
20260510081035 17 57 0.0 0.0 0.00 0.03 0.00 70 1011.9
20260510080542 17 57 0.0 0.0 0.00 0.03 0.00 70 1012.0
20260510080026 17 57 0.0 0.0 0.00 0.03 0.00 69 1012.0
20260510075532 17 57 0.0 0.0 0.00 0.03 0.00 69 1011.9
20260510075034 17 57 0.0 0.0 0.00 0.03 0.00 69 1011.9
20260510074520 17 57 0.0 0.0 0.00 0.03 0.00 70 1011.8
20260510074030 17 57 0.0 0.0 0.00 0.03 0.00 70 1011.8
20260510073536 17 57 0.0 0.0 0.00 0.03 0.00 71 1011.7
20260510073021 17 57 0.0 0.0 0.00 0.03 0.00 72 1011.6
20260510072527 17 57 0.0 0.0 0.00 0.03 0.00 72 1011.7
20260510072030 17 57 0.0 0.0 0.00 0.03 0.00 72 1011.7
20260510071536 17 57 0.0 0.0 0.00 0.03 0.00 72 1011.8
20260510071022 17 57 0.0 0.0 0.00 0.03 0.00 73 1011.8
20260510070547 17 57 0.0 0.0 0.00 0.03 0.00 73 1011.7
20260510070032 17 57 0.0 0.0 0.00 0.03 0.00 73 1011.8
20260510065519 17 57 0.0 0.0 0.00 0.03 0.00 73 1011.8
20260510065023 17 57 0.0 0.0 0.00 0.03 0.00 72 1011.7
20260510064534 17 57 0.0 0.0 0.00 0.03 0.00 72 1011.6
20260510064035 17 57 0.0 0.0 0.00 0.03 0.00 72 1011.6
20260510063521 17 57 0.0 0.0 0.00 0.03 0.00 72 1011.4
20260510063027 17 57 0.0 0.0 0.00 0.03 0.00 72 1011.4
20260510062534 17 57 0.0 0.0 0.00 0.03 0.00 71 1011.4
20260510062017 17 57 0.0 0.0 0.00 0.03 0.00 71 1011.4
20260510061524 17 57 0.0 0.0 0.00 0.03 0.00 71 1011.4
20260510061026 17 57 0.0 0.0 0.00 0.03 0.00 70 1011.3
20260510060532 17 57 0.0 0.0 0.00 0.03 0.00 69 1011.4
20260510060018 17 57 0.0 0.0 0.00 0.03 0.00 68 1011.4
20260510055529 18 57 0.0 0.0 0.00 0.03 0.00 67 1011.4
20260510055033 18 57 0.0 0.0 0.00 0.03 0.00 66 1011.4
20260510054518 18 57 0.0 0.0 0.00 0.03 0.00 65 1011.4
20260510054024 18 57 0.0 0.0 0.00 0.03 0.00 65 1011.3
20260510053529 18 57 0.0 0.0 0.00 0.03 0.00 64 1011.3
20260510053035 18 57 0.0 0.0 0.00 0.03 0.00 63 1011.3
20260510052521 18 57 0.0 0.0 0.00 0.05 0.00 64 1011.2
20260510052025 19 57 0.0 0.0 0.00 0.05 0.00 63 1011.3
20260510051531 19 57 0.0 0.0 0.00 0.05 0.00 64 1011.3
20260510051057 19 57 0.0 0.0 0.00 0.05 0.00 63 1011.4
20260510050540 19 57 0.0 0.0 0.00 0.05 0.00 64 1011.4
20260510050030 19 57 0.0 0.0 0.00 0.05 0.00 64 1011.4
20260510045535 19 57 0.0 0.0 0.00 0.05 0.00 63 1011.4
20260510045038 19 57 0.0 0.0 0.00 0.05 0.00 62 1011.3
20260510044523 19 57 0.0 0.0 0.00 0.05 0.00 63 1011.2
20260510044029 19 57 0.0 0.0 0.00 0.05 0.00 62 1011.1
20260510043534 19 25 0.0 0.0 0.00 0.05 0.00 62 1011.1
20260510043038 19 25 0.0 0.0 0.00 0.05 0.00 61 1011.1
20260510042544 19 19 0.0 0.0 0.00 0.05 0.00 61 1011.1
20260510042025 19 28 0.0 0.0 0.00 0.05 0.00 61 1011.0
20260510041532 19 28 0.0 0.0 0.00 0.05 0.00 61 1011.0
20260510041056 19 23 0.0 0.0 0.00 0.05 0.00 61 1011.0
20260510040540 20 71 0.0 0.0 0.00 0.05 0.00 60 1011.0
20260510040028 20 57 0.0 0.0 0.00 0.05 0.00 58 1010.7
20260510035553 20 213 0.0 0.0 0.00 0.05 0.00 57 1010.2
20260510035035 20 194 0.0 0.0 0.00 0.05 0.00 58 1010.0
20260510034541 20 194 0.0 0.0 0.00 0.05 0.00 59 1010.0
20260510034026 20 194 0.0 0.0 0.00 0.05 0.00 60 1009.9
20260510033532 20 194 0.0 0.0 0.00 0.05 0.00 61 1009.8
20260510033037 20 194 0.0 0.0 0.00 0.05 0.00 61 1009.8
20260510032544 20 194 0.0 0.0 0.00 0.18 0.00 62 1009.9
20260510032025 20 194 0.0 0.0 0.00 0.18 0.00 63 1009.8
20260510031531 20 194 0.0 0.0 0.00 0.18 0.00 62 1009.8
20260510031036 20 194 0.0 0.0 0.00 0.18 0.00 63 1009.8
20260510030542 20 194 0.0 0.0 0.00 0.18 0.00 62 1009.8
20260510030030 20 194 0.0 0.0 0.00 0.18 0.00 60 1009.8
20260510025536 20 194 0.0 0.0 0.00 0.18 0.00 60 1009.7
20260510025038 20 194 0.0 0.0 0.00 0.18 0.00 59 1009.6
20260510024524 20 194 0.0 0.0 0.00 0.18 0.00 59 1009.5
20260510024027 21 194 0.0 0.0 0.00 0.18 0.00 59 1009.4
20260510023528 21 194 0.0 0.0 0.00 0.18 0.00 59 1009.4
20260510023033 21 194 0.0 0.0 0.00 0.18 0.00 58 1009.3
20260510022558 21 194 0.0 0.0 0.00 0.89 0.00 57 1009.1
20260510022040 21 194 0.0 0.0 0.00 0.89 0.00 55 1009.0
20260510021526 22 194 0.0 0.0 0.00 0.89 0.00 53 1008.9
20260510021047 22 194 0.0 0.0 0.00 0.89 0.00 52 1008.7
20260510020548 22 194 0.0 0.0 0.00 0.89 0.00 52 1008.7
20260510020032 22 194 0.0 0.0 0.00 0.89 0.00 50 1008.5
20260510015559 22 194 0.0 0.0 0.00 0.89 0.00 50 1008.3
20260510015023 23 194 0.0 0.0 0.00 0.89 0.00 51 1008.1
20260510014529 23 194 0.0 0.0 0.00 0.89 0.00 49 1008.1
20260510014034 23 194 0.0 0.0 0.00 0.89 0.00 48 1008.1
20260510013539 23 194 0.0 0.0 0.00 0.89 0.00 47 1008.0
20260510013024 23 194 0.0 0.0 0.00 0.89 0.00 47 1008.0
20260510012529 24 194 0.0 0.0 0.00 0.89 0.00 46 1007.9
20260510012032 24 194 0.0 0.0 0.00 0.89 0.00 45 1007.9
20260510011558 25 194 0.0 0.0 0.00 0.89 0.00 45 1007.8
20260510011041 25 194 0.0 0.0 0.00 0.89 0.00 43 1007.8
20260510010527 25 194 0.0 0.0 0.00 0.89 0.00 42 1007.7
20260510010032 25 194 0.0 0.0 0.00 0.89 0.00 41 1007.6
20260510005537 25 194 0.0 0.0 0.00 0.89 0.00 40 1007.6
20260510005025 25 194 0.0 0.0 0.00 0.89 0.00 39 1007.5
20260510004530 26 194 0.0 0.0 0.00 0.89 0.00 38 1007.4
20260510004035 26 194 0.0 0.0 0.00 0.89 0.00 37 1007.4
20260510003541 26 194 0.0 0.0 0.00 0.89 0.00 36 1007.4
20260510003026 26 194 0.0 0.0 0.00 0.89 0.00 36 1007.4
20260510002532 26 194 0.0 0.0 0.00 0.89 0.00 36 1007.4
20260510002035 26 174 0.0 0.0 0.00 0.89 0.00 35 1007.4
20260510001540 26 174 0.0 0.0 0.00 0.89 0.00 35 1007.4
20260510001026 26 200 0.0 0.0 0.00 0.89 0.00 33 1007.4
20260510000531 26 187 0.0 0.0 0.00 0.89 0.00 33 1007.5
20260510000056 27 194 0.0 0.0 0.00 0.89 0.00 33 1007.5
20260509235544 27 210 0.0 0.0 0.00 0.89 0.00 32 1007.4
20260509235026 27 203 0.0 0.0 0.00 0.89 0.00 34 1007.4
20260509234531 27 250 0.0 0.0 0.00 0.89 0.00 33 1007.4
20260509234036 27 199 0.0 0.0 0.00 0.89 0.00 31 1007.4
20260509233523 27 245 0.0 0.0 0.00 0.89 0.00 31 1007.4
20260509233030 27 234 0.0 0.0 0.00 0.89 0.00 32 1007.4
20260509232534 27 244 0.0 0.0 0.00 0.89 0.00 32 1007.3
20260509232040 27 254 0.0 0.0 0.00 0.89 0.00 32 1007.3
20260509231526 27 262 0.0 0.0 0.00 0.89 0.00 33 1007.4
20260509231034 27 201 0.0 0.0 0.00 0.89 0.00 33 1007.4
20260509230525 27 230 0.0 0.0 0.00 0.89 0.00 34 1007.5
20260509230051 27 185 0.0 0.0 0.00 0.89 0.00 33 1007.5
20260509225536 27 225 0.0 1.6 0.00 0.89 0.00 34 1007.4
20260509225040 27 196 0.0 1.6 0.00 0.89 0.00 32 1007.4
20260509224526 27 212 0.0 1.6 0.00 0.89 0.00 32 1007.4
20260509224032 27 231 0.0 1.6 0.00 0.89 0.00 31 1007.4
20260509223538 27 215 0.0 3.2 0.00 0.89 0.00 31 1007.4
20260509223044 28 241 0.0 3.2 0.00 0.89 0.00 32 1007.4
20260509222529 28 245 0.0 1.6 0.00 0.89 0.00 31 1007.5
20260509222035 28 190 0.0 1.6 0.00 0.89 0.00 28 1007.4
20260509221539 28 215 0.0 0.0 0.00 0.89 0.00 29 1007.4
20260509221023 28 227 0.0 0.0 0.00 0.89 0.00 30 1007.4
20260509220533 28 250 0.0 3.2 0.00 0.89 0.00 30 1007.4
20260509220101 28 240 0.0 3.2 0.00 0.89 0.00 29 1007.5
20260509215523 28 271 0.0 0.0 0.00 0.89 0.00 29 1007.4
20260509215029 28 197 0.0 1.6 0.00 0.89 0.00 28 1007.4
20260509214536 29 241 0.0 1.6 0.00 0.89 0.00 28 1007.4
20260509214101 29 283 0.0 1.6 0.00 0.89 0.00 29 1007.4
20260509213526 28 67 0.0 1.6 0.00 0.89 0.00 31 1007.4
20260509213033 28 203 0.0 1.6 0.00 0.89 0.00 29 1007.5
20260509212539 28 245 0.0 3.2 0.00 0.89 0.00 31 1007.5
20260509212025 28 236 0.0 3.2 0.00 0.89 0.00 30 1007.5